Location: Dürabuch
(48.2640°N, 11.2185°E)
Time: 19:31:49
(UTC+00:00)

CZ-2D R/B - Pass Details

Date: 24 May 2025
Orbit: 790 x 841 km, 98.8° (Epoch: 16 June)

Event Time Altitude Azimuth Distance (km) Brightness Sun altitude
Rises 01:40:58 0° 15° (NNE) 3,408 6.8 -13.3°
Reaches altitude 10° 01:43:21 10° 17° (NNE) 2,471 5.9 -13.1°
Maximum altitude 01:48:52 80° 105° (ESE) 859 2.3 -12.5°
Enters shadow 01:53:48 13° 192° (SSW) 2,251 3.9 -12.0°
